User: anonymous   Login
Location: Unspecified
(0.0000°N, 0.0000°E)
Time: 11:02:07
(UTC+00:00)
Language:

METEOR M2 - Orbit

View from above orbital plane
View from above orbital plane
View from above satellite
View from above satellite

Ground track
Ground track

The orbit data is extracted from the following two-line orbital elements,

1 40069U 14037A   17267.11739463 -.00000043  00000-0 -30908-7 0  9997
2 40069  98.6443 319.7366 0004502 296.4620  63.6103 14.20644794166609
Epoch (UTC): 24 September 2017 02:49:02
Eccentricity: 0.0004502
inclination: 98.6443°
perigee height: 820 km
apogee height: 826 km
right ascension of ascending node: 319.7366°
argument of perigee: 296.4620°
revolutions per day: 14.20644794
mean anomaly at epoch: 63.6103°
orbit number at epoch: 16660

The dashed part of the orbit path shows where the satellite is in the earth's shadow,  

DLR